User: anonymous   Login
Location: B
(0.0000°N, 0.0000°E)
Time: 15:16:26
(UTC+01:00)
Language:

Cosmos 1025 Rocket - Orbit

View from above orbital plane
View from above orbital plane
View from above satellite
View from above satellite

Ground track
Ground track

The orbit data is extracted from the following two-line orbital elements,

1 10974U 78067B   14354.92744991  .00001174  00000-0  12862-3 0  4924
2 10974 082.4836 310.1362 0019252 114.8807 301.7623 14.86795149972440
Epoch (UTC): 20 December 2014 22:15:31
Eccentricity: 0.0019252
inclination: 82.4836°
perigee height: 594 km
apogee height: 621 km
right ascension of ascending node: 310.1362°
argument of perigee: 114.8807°
revolutions per day: 14.86795149
mean anomaly at epoch: 301.7623°
orbit number at epoch: 97244

The dashed part of the orbit path shows where the satellite is in the earth's shadow,  

DLR